Phoenix, AZ

6:50 AM MST on October 19, 2017 (GMT -0700)
Phoenix Sky Harbor International

Weather History for KPHX - October, 2012

Change the Weather History Date:

Thursday, October 4, 2012

  Actual Average Record
Temperature  
Mean Temperature 87 °F 82 °F  
Max Temperature 100 °F 93 °F 103 °F (1993)
Min Temperature 74 °F 70 °F 46 °F (1908)
Degree Days  
Heating Degree Days 0 0  
Month to date heating degree days 0 0  
Since 1 July heating degree days 0 0  
Cooling Degree Days 22 17  
Month to date cooling degree days 93 69  
Year to date cooling degree days 4584 4238  
Growing Degree Days 36 (Base 50)    
Moisture  
Dew Point 41 °F    
Average Humidity 23    
Maximum Humidity 33    
Minimum Humidity 12    
Precipitation  
Precipitation 0.00 in 0.02 in 0.91 in (1972)
Month to date precipitation 0.00 0.08  
Year to date precipitation 3.36 6.00  
Snow  
Snow 0.00 in - - ()
Month to date snowfall 0.0  
Year to date snowfall 0.0  
Since 1 July snowfall 0.0  
Snow Depth 0.00 in    
Sea Level Pressure  
Sea Level Pressure 29.91 in    
Wind  
Wind Speed 6 mph (ESE)    
Max Wind Speed 14 mph    
Max Gust Speed 22 mph    
Visibility 10 miles    
Events      
T = Trace of Precipitation, MM = Missing Value Source: NWS Daily Summary

Daily Weather History Graph

Daily Weather History Graph

Search for Another Location

Airport or City:

Trip Planner

Search our weather history database for the weather conditions in past years. The results will help you decide how hot, cold, wet, or windy it might be!

Date:

Astronomy

Oct. 04, 2012 Rise Set
Actual Time 6:24 AM MST 6:07 PM MST
Civil Twilight 6:00 AM MST 6:32 PM MST
Nautical Twilight 5:31 AM MST 7:01 PM MST
Astronomical Twilight 5:02 AM MST 7:30 PM MST
Moon 8:59 PM MST (10/4) 10:31 AM MST (10/4)
Length of Visible Light 12h 32m
Length of Day
11h 42m
Waning Gibbous, 81% of the Moon is Illuminated
Oct 4
Waning Gibbous
Oct 8
Last Quarter
Oct 15
New
Oct 21
First Quarter
Oct 29
Full

Hourly Weather History & Observations

Time (MST) Temp. Dew Point Humidity Pressure Visibility Wind Dir Wind Speed Gust Speed Precip Events Conditions
12:51 AM 81.0 °F 43.0 °F 26% 29.87 in 10.0 mi ENE 8.1 mph - N/A   Scattered Clouds
1:51 AM 79.0 °F 41.0 °F 26% 29.88 in 10.0 mi East 9.2 mph - N/A   Scattered Clouds
2:51 AM 78.1 °F 39.9 °F 25% 29.88 in 10.0 mi East 8.1 mph - N/A   Scattered Clouds
3:51 AM 77.0 °F 39.9 °F 26% 29.90 in 10.0 mi East 6.9 mph - N/A   Partly Cloudy
4:51 AM 75.0 °F 42.1 °F 31% 29.90 in 10.0 mi East 5.8 mph - N/A   Partly Cloudy
5:51 AM 75.0 °F 43.0 °F 32% 29.92 in 10.0 mi East 6.9 mph - N/A   Partly Cloudy
6:51 AM 73.9 °F 42.1 °F 32% 29.94 in 10.0 mi East 6.9 mph - N/A   Mostly Cloudy
7:51 AM 77.0 °F 43.0 °F 30% 29.96 in 10.0 mi East 5.8 mph - N/A   Mostly Cloudy
8:51 AM 82.4 °F 44.6 °F 26% 30.02 in 10.0 mi ESE 8.1 mph - N/A   Mostly Cloudy
9:51 AM 86.0 °F 45.0 °F 24% 29.98 in 10.0 mi ESE 6.9 mph - N/A   Mostly Cloudy
10:51 AM 90.0 °F 43.0 °F 19% 29.98 in 10.0 mi East 4.6 mph - N/A   Mostly Cloudy
11:51 AM 93.0 °F 39.9 °F 16% 29.96 in 10.0 mi Variable 4.6 mph - N/A   Mostly Cloudy
12:51 PM 93.9 °F 39.0 °F 15% 29.93 in 10.0 mi Calm Calm - N/A   Mostly Cloudy
1:51 PM 95.0 °F 39.9 °F 15% 29.90 in 10.0 mi Calm Calm - N/A   Mostly Cloudy
2:51 PM 96.8 °F 39.2 °F 14% 29.94 in 10.0 mi Calm Calm - N/A   Mostly Cloudy
3:51 PM 98.1 °F 37.9 °F 12% 29.86 in 10.0 mi SSW 8.1 mph - N/A   Mostly Cloudy
4:51 PM 96.1 °F 39.0 °F 14% 29.85 in 10.0 mi WNW 10.4 mph - N/A   Mostly Cloudy
5:51 PM 93.9 °F 39.9 °F 15% 29.86 in 10.0 mi West 11.5 mph - N/A   Mostly Cloudy
6:51 PM 93.2 °F 41.0 °F 16% 29.91 in 10.0 mi NW 9.2 mph - N/A   Mostly Cloudy
7:51 PM 89.6 °F 39.2 °F 17% 29.92 in 10.0 mi WSW 5.8 mph - N/A   Mostly Cloudy
8:51 PM 87.1 °F 39.0 °F 18% 29.88 in 10.0 mi WSW 5.8 mph - N/A   Mostly Cloudy
9:51 PM 84.0 °F 39.0 °F 20% 29.89 in 10.0 mi WSW 4.6 mph - N/A   Partly Cloudy
10:51 PM 84.2 °F 37.4 °F 19% 29.95 in 10.0 mi Calm Calm - N/A   Partly Cloudy
11:51 PM 82.0 °F 39.9 °F 22% 29.89 in 10.0 mi Calm Calm - N/A   Partly Cloudy